CW7104 Weather Reports


time (UTC)temp
C
wind
direction
speed
KPH
gust
KPH
rain 1hr
cm
rain 24hr
cm
rain mn
cm
humidity
%
barometer
mb
20260510095905 15 271 0.0 0.0 0.00 0.00 0.00 73 1012.6
20260510095406 15 271 0.0 0.0 0.00 0.00 0.00 73 1012.5
20260510094905 16 271 0.0 0.0 0.00 0.00 0.00 72 1012.4
20260510094405 16 271 0.0 0.0 0.00 0.00 0.00 72 1012.3
20260510093405 16 271 0.0 0.0 0.00 0.00 0.00 71 1012.2
20260510092905 16 271 0.0 0.0 0.00 0.00 0.00 70 1012.2
20260510092405 16 271 0.0 0.0 0.00 0.00 0.00 70 1012.1
20260510091905 16 271 0.0 0.0 0.00 0.00 0.00 70 1012.1
20260510091405 16 271 0.0 0.0 0.00 0.00 0.00 70 1012.1
20260510090405 17 271 0.0 0.0 0.00 0.00 0.00 69 1012.3
20260510085905 17 271 0.0 0.0 0.00 0.00 0.00 68 1012.5
20260510084905 17 278 0.0 0.0 0.00 0.00 0.00 68 1012.4
20260510084406 17 267 0.0 0.0 0.00 0.00 0.00 68 1012.6
20260510083905 17 267 0.0 0.0 0.00 0.00 0.00 67 1012.7
20260510083406 17 267 0.0 0.0 0.00 0.00 0.00 67 1012.5
20260510082905 17 267 0.0 0.0 0.00 0.00 0.00 66 1012.6
20260510081905 17 287 0.0 0.0 0.00 0.00 0.00 65 1012.6
20260510080905 17 274 0.0 0.0 0.00 0.00 0.00 63 1012.4
20260510080405 17 317 0.0 0.0 0.00 0.00 0.00 63 1012.4
20260510075905 17 330 0.0 0.0 0.00 0.00 0.00 62 1012.4
20260510075405 17 258 0.0 0.0 0.00 0.00 0.00 62 1012.3
20260510074905 17 299 0.0 0.0 0.00 0.00 0.00 62 1012.2
20260510074406 17 307 0.0 0.0 0.00 0.00 0.00 62 1012.2
20260510073905 17 238 0.0 0.0 0.00 0.00 0.00 62 1012.3
20260510072905 17 357 0.0 0.0 0.00 0.00 0.00 62 1012.2
20260510071905 16 347 0.0 0.0 0.00 0.00 0.00 63 1012.4
20260510071405 16 332 0.0 0.0 0.00 0.00 0.00 66 1012.2
20260510070406 15 207 0.0 0.0 0.00 0.00 0.00 70 1011.4
20260510065905 15 207 0.0 0.0 0.00 0.00 0.00 70 1011.3
20260510065405 15 213 0.0 0.0 0.00 0.00 0.00 70 1011.2
20260510064905 15 213 0.0 0.0 0.00 0.00 0.00 70 1011.3
20260510063405 15 213 0.0 0.0 0.00 0.00 0.00 72 1011.1
20260510062905 15 213 0.0 0.0 0.00 0.00 0.00 72 1011.0
20260510062405 15 213 0.0 0.0 0.00 0.00 0.00 73 1011.0
20260510061905 15 213 0.0 0.0 0.00 0.00 0.00 74 1011.0
20260510061405 15 214 0.0 0.0 0.00 0.00 0.00 75 1011.1
20260510060905 15 214 0.0 0.0 0.00 0.00 0.00 75 1011.2
20260510055906 15 214 0.0 0.0 0.00 0.00 0.00 75 1011.1
20260510055405 15 214 0.0 0.0 0.00 0.00 0.00 75 1011.2
20260510054905 15 214 0.0 0.0 0.00 0.00 0.00 75 1011.1
20260510054405 15 214 0.0 0.0 0.00 0.00 0.00 75 1011.1
20260510053905 15 214 0.0 0.0 0.00 0.00 0.00 74 1011.2
20260510052905 15 214 0.0 0.0 0.00 0.00 0.00 74 1010.9
20260510052405 15 214 0.0 0.0 0.00 0.00 0.00 74 1010.9
20260510051905 15 214 0.0 0.0 0.00 0.00 0.00 74 1010.9
20260510051405 15 214 0.0 0.0 0.00 0.00 0.00 74 1010.9
20260510050905 15 214 0.0 0.0 0.00 0.00 0.00 73 1010.9
20260510050405 15 214 0.0 0.0 0.00 0.00 0.00 73 1010.9
20260510045905 15 214 0.0 0.0 0.00 0.00 0.00 72 1010.8
20260510045405 15 214 0.0 0.0 0.00 0.00 0.00 72 1010.8
20260510044905 16 214 0.0 0.0 0.00 0.00 0.00 72 1010.9
20260510044405 16 214 0.0 0.0 0.00 0.00 0.00 72 1011.2
20260510043404 16 214 0.0 0.0 0.00 0.00 0.00 71 1011.2
20260510042405 16 214 0.0 0.0 0.00 0.00 0.00 70 1011.2
20260510041904 16 214 0.0 0.0 0.00 0.00 0.00 70 1011.2
20260510040405 16 214 0.0 0.0 0.00 0.00 0.00 69 1011.2
20260510035904 16 214 0.0 0.0 0.00 0.00 0.00 69 1011.2
20260510035405 17 214 0.0 0.0 0.00 0.00 0.00 68 1011.2
20260510034905 17 214 0.0 0.0 0.00 0.00 0.00 68 1011.1
20260510034405 17 214 0.0 0.0 0.00 0.00 0.00 67 1011.0
20260510033904 17 214 0.0 0.0 0.00 0.00 0.00 67 1011.1
20260510033405 17 214 0.0 0.0 0.00 0.00 0.00 66 1011.0
20260510032405 17 214 0.0 0.0 0.00 0.00 0.00 66 1011.0
20260510031905 17 214 0.0 0.0 0.00 0.00 0.00 66 1011.1
20260510031405 18 214 0.0 0.0 0.00 0.00 0.00 65 1011.1
20260510030405 18 214 0.0 0.0 0.00 0.00 0.00 64 1011.1
20260510025905 18 214 0.0 0.0 0.00 0.00 0.00 64 1011.0
20260510025405 18 214 0.0 0.0 0.00 0.00 0.00 63 1011.0
20260510024905 18 214 0.0 0.0 0.00 0.00 0.00 63 1010.9
20260510023405 18 222 0.0 0.0 0.00 0.00 0.00 62 1010.8
20260510022405 19 222 0.0 0.0 0.00 0.00 0.00 61 1010.8
20260510021904 19 222 0.0 0.0 0.00 0.00 0.00 60 1010.7
20260510021405 19 222 0.0 0.0 0.00 0.00 0.00 60 1010.7
20260510020904 19 222 0.0 0.0 0.00 0.00 0.00 59 1010.6
20260510020405 20 222 0.0 0.0 0.00 0.00 0.00 59 1010.6
20260510015905 20 222 0.0 0.0 0.00 0.00 0.00 59 1010.5
20260510015405 20 222 0.0 0.0 0.00 0.00 0.00 58 1010.4
20260510014905 20 222 0.0 0.0 0.00 0.00 0.00 57 1010.3
20260510014405 20 222 0.0 0.0 0.00 0.00 0.00 56 1010.3
20260510013905 20 222 0.0 0.0 0.00 0.00 0.00 55 1010.2
20260510013405 21 223 0.0 0.0 0.00 0.00 0.00 54 1010.1
20260510012905 21 223 0.0 0.0 0.00 0.00 0.00 53 1010.0
20260510012405 21 223 0.0 0.0 0.00 0.00 0.00 53 1009.9
20260510011904 21 223 0.0 0.0 0.00 0.00 0.00 52 1009.8
20260510011405 21 223 0.0 0.0 0.00 0.00 0.00 51 1009.7
20260510010905 22 223 0.0 0.0 0.00 0.00 0.00 50 1009.8
20260510010405 22 223 0.0 0.0 0.00 0.00 0.00 49 1009.7
20260510005904 22 223 0.0 0.0 0.00 0.00 0.00 49 1009.7
20260510005405 22 223 0.0 0.0 0.00 0.00 0.00 47 1009.6
20260510004405 23 223 0.0 0.0 0.00 0.00 0.00 45 1009.4
20260510003405 24 223 0.0 0.0 0.00 0.00 0.00 44 1009.2
20260510002905 25 223 0.0 0.0 0.00 0.00 0.00 43 1009.1
20260510001904 25 223 0.0 0.0 0.00 0.00 0.00 41 1008.9
20260510001405 25 220 0.0 1.6 0.00 0.00 0.00 40 1009.0
20260510000904 26 235 0.0 0.0 0.00 0.00 0.00 40 1009.0
20260510000406 26 232 0.0 1.6 0.00 0.00 0.00 39 1009.0
20260509235405 26 264 0.0 1.6 0.00 0.00 0.00 39 1009.0
20260509234905 26 302 0.0 1.6 0.00 0.00 0.00 38 1009.0
20260509234404 26 246 0.0 0.0 0.00 0.00 0.00 38 1008.9
20260509233904 26 267 0.0 1.6 0.00 0.00 0.00 37 1009.0
20260509233405 26 258 0.0 14.5 0.00 0.00 0.00 36 1009.0
20260509232404 27 233 0.0 3.2 0.00 0.00 0.00 36 1009.0
20260509231404 27 252 0.0 1.6 0.00 0.00 0.00 37 1009.0
20260509230905 27 248 0.0 1.6 0.00 0.00 0.00 37 1008.9
20260509230405 27 323 0.0 9.7 0.00 0.00 0.00 35 1008.9
20260509225904 27 304 6.4 16.1 0.00 0.00 0.00 35 1008.9
20260509225404 27 291 0.0 19.3 0.00 0.00 0.00 35 1008.9
20260509224905 26 288 0.0 19.3 0.00 0.00 0.00 36 1008.8
20260509224405 26 320 1.6 14.5 0.00 0.00 0.00 35 1008.8
20260509223904 27 349 1.6 19.3 0.00 0.00 0.00 34 1008.8
20260509223405 27 308 1.6 11.3 0.00 0.00 0.00 35 1008.6
20260509222905 27 314 0.0 3.2 0.00 0.00 0.00 36 1008.6
20260509222404 27 304 1.6 3.2 0.00 0.00 0.00 34 1008.6
20260509221905 27 319 0.0 3.2 0.00 0.00 0.00 33 1008.6
20260509221404 27 227 1.6 8.0 0.00 0.00 0.00 33 1008.5
20260509220904 27 329 0.0 11.3 0.00 0.00 0.00 34 1008.5
20260509220405 27 330 0.0 1.6 0.00 0.00 0.00 34 1008.4
20260509215904 27 297 0.0 4.8 0.00 0.00 0.00 34 1008.4
20260509215404 27 298 0.0 4.8 0.00 0.00 0.00 35 1008.4
20260509214904 27 250 0.0 3.2 0.00 0.00 0.00 34 1008.4
20260509213904 27 293 0.0 1.6 0.00 0.00 0.00 33 1008.4
20260509213404 27 235 1.6 3.2 0.00 0.00 0.00 35 1008.5
20260509212904 27 239 0.0 1.6 0.00 0.00 0.00 35 1008.4
20260509211905 28 279 1.6 3.2 0.00 0.00 0.00 37 1008.5
20260509211405 28 238 0.0 1.6 0.00 0.00 0.00 41 1008.6
20260509205404 27 138 1.6 19.3 0.00 0.00 0.00 43 1008.7
20260509204904 27 164 0.0 3.2 0.00 0.00 0.00 43 1008.8
20260509204404 27 291 0.0 3.2 0.00 0.00 0.00 42 1008.9
20260509203904 27 182 3.2 16.1 0.00 0.00 0.00 44 1008.9
20260509203405 26 170 0.0 1.6 0.00 0.00 0.00 47 1009.0
20260509202905 26 165 0.0 14.5 0.00 0.00 0.00 47 1009.1
20260509202405 26 232 0.0 8.0 0.00 0.00 0.00 48 1009.1
20260509201904 26 247 1.6 11.3 0.00 0.00 0.00 48 1009.2
20260509201405 26 274 0.0 3.2 0.00 0.00 0.00 50 1009.3
20260509195404 25 264 0.0 1.6 0.00 0.00 0.00 48 1009.5
20260509194904 25 243 1.6 19.3 0.00 0.00 0.00 49 1009.5
20260509194404 25 149 4.8 19.3 0.00 0.00 0.00 48 1009.6
20260509193905 25 149 1.6 3.2 0.00 0.00 0.00 49 1009.6
20260509193405 25 164 0.0 1.6 0.00 0.00 0.00 52 1009.6
20260509192904 25 257 0.0 4.8 0.00 0.00 0.00 51 1009.6
20260509192404 25 128 3.2 19.3 0.00 0.00 0.00 53 1009.7
20260509191405 24 222 0.0 3.2 0.00 0.00 0.00 56 1009.7
20260509190904 24 326 0.0 3.2 0.00 0.00 0.00 57 1009.7
20260509190404 23 143 0.0 3.2 0.00 0.00 0.00 58 1009.8
20260509185905 23 194 0.0 3.2 0.00 0.00 0.00 57 1009.8
20260509185404 23 249 0.0 4.8 0.00 0.00 0.00 54 1009.9
20260509184904 23 319 0.0 3.2 0.00 0.00 0.00 53 1009.9
20260509184404 23 271 0.0 3.2 0.00 0.00 0.00 54 1010.0
20260509183404 23 234 4.8 14.5 0.00 0.00 0.00 56 1010.0
20260509182904 22 263 0.0 1.6 0.00 0.00 0.00 59 1009.9
20260509182405 22 213 0.0 1.6 0.00 0.00 0.00 63 1009.9
20260509181904 22 270 0.0 1.6 0.00 0.00 0.00 61 1010.0
20260509181404 22 258 0.0 3.2 0.00 0.00 0.00 62 1010.1
20260509180904 21 290 0.0 1.6 0.00 0.00 0.00 63 1010.2
20260509180404 21 234 0.0 1.6 0.00 0.00 0.00 64 1010.1
20260509175405 21 272 0.0 1.6 0.00 0.00 0.00 64 1010.1
20260509174904 21 337 0.0 12.9 0.00 0.00 0.00 63 1010.2
20260509174405 21 345 1.6 16.1 0.00 0.00 0.00 64 1010.2
20260509173404 21 237 1.6 16.1 0.00 0.00 0.00 64 1010.4
20260509172904 21 331 4.8 12.9 0.00 0.00 0.00 63 1010.5
20260509172404 21 245 0.0 3.2 0.00 0.00 0.00 62 1010.5
20260509171905 21 332 0.0 3.2 0.00 0.00 0.00 64 1010.5
20260509171404 21 320 0.0 1.6 0.00 0.00 0.00 65 1010.6
20260509170904 21 154 0.0 1.6 0.00 0.00 0.00 67 1010.6
20260509170404 20 346 0.0 8.0 0.00 0.00 0.00 64 1010.6
20260509165904 20 284 8.0 14.5 0.00 0.00 0.00 64 1010.7
20260509164905 20 234 0.0 1.6 0.00 0.00 0.00 65 1010.7
20260509164405 20 358 0.0 3.2 0.00 0.00 0.00 65 1010.7
20260509163904 20 338 0.0 4.8 0.00 0.00 0.00 64 1010.8
20260509162904 20 246 0.0 0.0 0.00 0.00 0.00 65 1010.6
20260509162405 20 308 0.0 0.0 0.00 0.00 0.00 65 1010.7
20260509161904 20 338 0.0 0.0 0.00 0.00 0.00 65 1010.7
20260509160904 20 159 0.0 0.0 0.00 0.00 0.00 67 1010.7
20260509160404 19 240 0.0 0.0 0.00 0.00 0.00 66 1010.7
20260509155904 19 240 0.0 0.0 0.00 0.00 0.00 66 1010.7
20260509154904 18 220 0.0 0.0 0.00 0.00 0.00 69 1010.6
20260509154404 18 231 0.0 0.0 0.00 0.00 0.00 68 1010.5
20260509153904 18 288 0.0 0.0 0.00 0.00 0.00 68 1010.6
20260509153404 18 220 0.0 0.0 0.00 0.00 0.00 69 1010.5
20260509152404 18 329 0.0 0.0 0.00 0.00 0.00 71 1010.3
20260509151904 17 302 0.0 0.0 0.00 0.00 0.00 70 1010.2
20260509150905 17 267 0.0 0.0 0.00 0.00 0.00 70 1010.2
20260509150404 17 337 0.0 0.0 0.00 0.00 0.00 71 1010.1
20260509145904 17 259 0.0 0.0 0.00 0.00 0.00 72 1010.1
20260509145404 17 251 0.0 0.0 0.00 0.00 0.00 73 1010.1
20260509144904 17 249 0.0 0.0 0.00 0.00 0.00 73 1010.0
20260509144404 17 225 0.0 0.0 0.00 0.00 0.00 73 1009.9
20260509143404 17 296 0.0 0.0 0.00 0.00 0.00 73 1010.0
20260509142904 17 248 0.0 0.0 0.00 0.00 0.00 75 1010.1
20260509142404 17 250 0.0 0.0 0.00 0.00 0.00 76 1010.0
20260509141904 17 272 0.0 0.0 0.00 0.00 0.00 79 1009.9
20260509141404 17 189 0.0 0.0 0.00 0.00 0.00 81 1009.8
20260509140904 16 233 0.0 0.0 0.00 0.00 0.00 82 1009.8
20260509135905 15 68 0.0 0.0 0.00 0.00 0.00 83 1009.7
20260509132905 15 186 0.0 0.0 0.00 0.00 0.00 83 1009.6
20260509132404 15 229 0.0 0.0 0.00 0.00 0.00 83 1009.7
20260509131904 14 260 0.0 0.0 0.00 0.00 0.00 83 1009.7